Location: Cheching
(60.0667°N, 164.2167°W)
Time: 22:06:15
(UTC+00:00)

LilacSat-2 - Pass Details

Date: 25 January 2021
Orbit: 512 x 534 km, 97.5° (Epoch: 07 March)

Event Time Altitude Azimuth Distance (km) Brightness Sun altitude
Rises 03:38:43 0° 167° (SSE) 2,640 ? -5.7°
Reaches altitude 10° 03:40:49 10° 169° (S) 1,760 ? -5.9°
Maximum altitude 03:44:36 74° 255° (WSW) 554 ? -6.4°
Drops below altitude 10° 03:48:28 10° 341° (NNW) 1,787 ? -6.8°
Sets 03:50:36 0° 344° (NNW) 2,685 ? -7.0°
